Flag for U.S.A. Weather past 2 weeks in Jackson, Mississippi, U.S.A.

Now
78 °F

Sunny.


Feels Like: 81 °F
Forecast: 74 / 96 °F
Wind: No wind

Location: Hawkins Field

Current Time: Sep 5, 2015 at 8:22:45 AM

Latest Report: Sep 5, 2015 at 7:53 AM


Visibility: 10 mi

Pressure: 30.02 "Hg

Humidity: 87%

Dew point: 74 °F

Location of JacksonLocation

Historic Weather in Jackson — Graph

°F

Jackson temperature yesterday

Maximum temperature yesterday: 95 °F (at 3:53 PM)
Minimum temperature yesterday: 73 °F (at 4:53 AM)
Average temperature yesterday: 84 °F

Past Weeks' High & Low Weather Summary

 TemperatureHumidityPressure
High95 °F (Sep 3, 3:53 PM)97% (Aug 22, 4:53 AM)30.11 "Hg (Aug 22, 4:53 AM)
Low59 °F (Aug 27, 5:53 AM)24% (Aug 26, 3:53 PM)29.86 "Hg (Sep 3, 5:53 PM)
Average80 °F62%30.00 "Hg
* Reported Aug 21 6:53 AM — Sep 5 6:53 AM, Jackson, Weather by CustomWeather, © 2015

Note: Actual official high and low records may vary slightly from our data, if they occured in-between our weather recording intervals... More about our weather records

Advertising

Jackson weather history for previous 24 hours

 ConditionsComfort  
Time TempWeatherWind HumidityBarometerVisibility
6:53 AM
Sat, Sep 5
76 °FClear.No wind91%30.01 "Hg10 mi
5:53 AM76 °FClear.No wind91%30.00 "Hg10 mi
4:53 AM76 °FClear.3 mph88%29.98 "Hg10 mi
3:53 AM76 °FClear.5 mph88%29.96 "Hg10 mi
2:53 AM77 °FClear.No wind85%29.96 "Hg10 mi
1:53 AM77 °FClear.No wind82%29.96 "Hg10 mi
12:53 AM78 °FClear.No wind76%29.96 "Hg10 mi
11:53 PM
Fri, Sep 4
79 °FClear.No wind74%29.96 "Hg10 mi
10:53 PM82 °FClear.No wind65%29.96 "Hg10 mi
9:53 PM83 °FPassing clouds.6 mph63%29.96 "Hg10 mi
8:53 PM86 °FPassing clouds.6 mph57%29.94 "Hg10 mi
7:53 PM88 °FPartly sunny.3 mph54%29.92 "Hg10 mi
6:53 PM92 °FPassing clouds.No wind47%29.92 "Hg10 mi
5:53 PM94 °FSunny.3 mph40%29.91 "Hg10 mi
4:53 PM95 °FSunny.6 mph40%29.91 "Hg10 mi
3:53 PM95 °FPassing clouds.5 mph41%29.91 "Hg10 mi
2:53 PM93 °FPassing clouds.9 mph44%29.93 "Hg10 mi
1:53 PM94 °FSunny.5 mph41%29.95 "Hg10 mi
12:53 PM92 °FSunny.3 mph47%29.97 "Hg10 mi
11:53 AM89 °FSunny.No wind53%29.98 "Hg10 mi
10:53 AM86 °FSunny.3 mph63%30.00 "Hg10 mi
9:53 AM84 °FSunny.5 mph70%30.00 "Hg10 mi
8:53 AM79 °FSunny.No wind82%29.99 "Hg10 mi
Weather by CustomWeather, © 2015

See weather overviewHow to use our weather pages